FW5349 Dartmouth CA current weather conditions

sailwx.info

Wind from 252

Air temperature 8.3° C
Dewpoint 4.0° C

Last reported at 2019-Oct-19 22:05 UTC.
Time now 2019-Oct-19 22:40 UTC

Location: N 44°41' W 063°32'.
View on Google Maps.

See reports from other nearby stations

  
Tides and Currents Weather Stations Pressure Air Temp Water Temp Dewpoint Dewpoint Depression Visibility Wind Speed Wind Dir Waves Ship Positions
date/time (UTC)wind fromknots sea level pressurealtimeterstation pressurevisibilityair tempwater tempwave heightnotes
2019-Oct-19 22:05 252 8.3
2019-Oct-19 22:01 272 8.3
2019-Oct-19 21:55 281 8.9
2019-Oct-19 21:50 281 8.9
2019-Oct-19 21:46 288 8.9
2019-Oct-19 21:40 277 8.9
2019-Oct-19 21:35 323 8.9
2019-Oct-19 21:32 309 8.9
2019-Oct-19 21:25 259 8.9
2019-Oct-19 21:21 317 8.9
2019-Oct-19 21:16 308 8.9
2019-Oct-19 21:10 309 8.9
2019-Oct-19 21:05 321 8.9
2019-Oct-19 21:01 283 8.9
2019-Oct-19 20:55 319 8.9
2019-Oct-19 20:50 338 8.9
2019-Oct-19 20:46 319 8.9
2019-Oct-19 20:40 315 0 gusting 2 8.9
2019-Oct-19 20:35 340 0 gusting 2 9.4
2019-Oct-19 20:31 298 0 gusting 2 9.4
2019-Oct-19 20:25 314 0 gusting 3 9.4
2019-Oct-19 20:20 294 9.4
2019-Oct-19 20:16 309 0 gusting 4 9.4
2019-Oct-19 20:10 317 1 gusting 4 9.4
2019-Oct-19 20:05 308 0 gusting 3 9.4
2019-Oct-19 20:00 297 9.4
2019-Oct-19 19:55 349 0 gusting 6 9.4
2019-Oct-19 19:50 304 0 gusting 4 9.4
2019-Oct-19 19:45 306 0 gusting 2 9.4
2019-Oct-19 19:40 305 0 gusting 4 10.0
2019-Oct-19 19:35 307 0 gusting 4 10.0
2019-Oct-19 19:30 313 0 gusting 4 10.0
2019-Oct-19 19:25 313 0 gusting 3 10.0
2019-Oct-19 19:20 316 0 gusting 3 10.0
2019-Oct-19 19:16 306 0 gusting 3 10.0
2019-Oct-19 19:10 305 1 gusting 3 10.6
2019-Oct-19 19:05 333 0 gusting 4 10.6
2019-Oct-19 19:00 272 1 gusting 4 11.1
2019-Oct-19 18:55 321 0 gusting 4 11.1
2019-Oct-19 18:50 320 0 gusting 3 11.1
2019-Oct-19 18:40 271 10.6
2019-Oct-19 18:35 271 0 gusting 3 10.0
2019-Oct-19 18:30 270 0 gusting 3 10.0
2019-Oct-19 18:25 307 0 gusting 3 9.4
2019-Oct-19 18:15 321 1 gusting 3 10.0
2019-Oct-19 18:10 314 0 gusting 5 10.0
2019-Oct-19 18:05 323 1 gusting 5 10.0
2019-Oct-19 18:00 309 0 gusting 3 10.0
2019-Oct-19 17:55 272 0 gusting 3 10.0
2019-Oct-19 17:50 256 0 gusting 3 10.0
2019-Oct-19 17:45 311 9.4
2019-Oct-19 17:40 298 0 gusting 3 9.4
2019-Oct-19 17:31 302 9.4
2019-Oct-19 17:25 285 1 gusting 3 10.0
2019-Oct-19 17:21 300 0 gusting 3 10.0
2019-Oct-19 17:17 306 0 gusting 1 10.0
2019-Oct-19 17:10 312 9.4
2019-Oct-19 17:06 338 8.9
2019-Oct-19 17:01 330 0 gusting 3 8.9
2019-Oct-19 16:55 345 0 gusting 1 8.9
2019-Oct-19 16:50 304 9.4
2019-Oct-19 16:47 332 0 gusting 2 9.4
2019-Oct-19 16:40 292 0 gusting 4 9.4
2019-Oct-19 16:35 295 1 gusting 4 10.0
2019-Oct-19 16:31 309 10.0
2019-Oct-19 16:25 290 0 gusting 3 10.0
2019-Oct-19 16:20 326 0 gusting 4 10.0
2019-Oct-19 16:16 317 0 gusting 4 10.0
2019-Oct-19 16:10 310 0 gusting 3 10.6
2019-Oct-19 16:05 328 0 gusting 3 10.6
2019-Oct-19 16:01 354 1 gusting 3 10.0
2019-Oct-19 15:55 012 0 gusting 4 10.0
2019-Oct-19 15:50 321 0 gusting 4 10.0
2019-Oct-19 15:46 309 0 gusting 2 10.0
2019-Oct-19 15:40 302 0 gusting 2 10.0
2019-Oct-19 15:35 329 0 gusting 2 10.0
2019-Oct-19 15:31 304 0 gusting 2 10.0
2019-Oct-19 15:25 310 0 gusting 2 10.0
2019-Oct-19 15:20 314 0 gusting 2 9.4
2019-Oct-19 15:16 316 0 gusting 2 9.4
2019-Oct-19 15:10 320 0 gusting 4 9.4
2019-Oct-19 15:05 328 0 gusting 4 9.4
2019-Oct-19 15:01 317 0 gusting 2 9.4
2019-Oct-19 14:55 297 0 gusting 2 9.4
2019-Oct-19 14:50 297 0 gusting 2 10.0
2019-Oct-19 14:45 327 0 gusting 3 9.4
2019-Oct-19 14:35 278 9.4
2019-Oct-19 14:31 274 0 gusting 3 9.4
2019-Oct-19 14:25 313 0 gusting 3 9.4
2019-Oct-19 14:20 274 0 gusting 3 10.0
2019-Oct-19 14:15 319 0 gusting 2 10.0
2019-Oct-19 14:10 325 0 gusting 3 9.4
2019-Oct-19 14:05 001 0 gusting 3 8.9
2019-Oct-19 14:00 293 0 gusting 4 8.9
2019-Oct-19 13:55 313 0 gusting 2 8.9
2019-Oct-19 13:50 282 0 gusting 3 8.3
2019-Oct-19 13:45 288 0 gusting 3 8.3
2019-Oct-19 13:40 310 8.3
2019-Oct-19 13:30 255 8.3
2019-Oct-19 13:25 298 8.3
2019-Oct-19 13:20 301 8.3
2019-Oct-19 13:10 307 0 gusting 2 7.8
2019-Oct-19 13:05 311 8.3
2019-Oct-19 12:55 278 8.3
2019-Oct-19 12:50 271 0 gusting 3 8.3
2019-Oct-19 12:40 255 8.3
2019-Oct-19 12:35 331 8.3
2019-Oct-19 12:30 282 8.3
2019-Oct-19 12:25 303 8.3
2019-Oct-19 12:20 255 8.3
2019-Oct-19 12:10 269 8.3
2019-Oct-19 12:05 259 0 gusting 1 8.3
2019-Oct-19 12:00 301 8.3
2019-Oct-19 11:55 274 8.3
2019-Oct-19 11:50 311 8.3
2019-Oct-19 11:45 282 8.3
2019-Oct-19 11:40 276 8.3
2019-Oct-19 11:32 284 7.8
2019-Oct-19 11:26 295 7.8
2019-Oct-19 11:21 258 7.8
2019-Oct-19 11:16 299 7.8
2019-Oct-19 11:10 290 7.8
2019-Oct-19 11:05 302 7.8
2019-Oct-19 11:01 303 7.8
2019-Oct-19 10:55 299 7.8
2019-Oct-19 10:50 309 7.8
2019-Oct-19 10:47 278 7.8
2019-Oct-19 10:40 278 7.8
2019-Oct-19 10:35 303 7.8
2019-Oct-19 10:31 271 7.8
2019-Oct-19 10:25 261 7.8
2019-Oct-19 10:21 311 7.8
2019-Oct-19 10:16 276 7.8
2019-Oct-19 10:11 264 7.8
2019-Oct-19 10:05 276 7.8
2019-Oct-19 10:01 264 7.8
2019-Oct-19 09:55 269 7.8
2019-Oct-19 09:50 261 7.8
2019-Oct-19 09:46 308 7.8
2019-Oct-19 09:40 256 7.8
2019-Oct-19 09:35 308 7.8
2019-Oct-19 09:31 325 7.8
2019-Oct-19 09:25 311 7.8
2019-Oct-19 09:20 316 0 gusting 2 7.8
2019-Oct-19 09:15 313 0 gusting 2 7.8
2019-Oct-19 09:10 287 7.8
2019-Oct-19 09:05 314 7.8
2019-Oct-19 09:00 306 7.8
2019-Oct-19 08:55 262 7.8
2019-Oct-19 08:50 295 7.8
2019-Oct-19 08:45 327 7.8
2019-Oct-19 08:40 266 7.8
2019-Oct-19 08:35 268 7.8
2019-Oct-19 08:31 274 7.8
2019-Oct-19 08:25 265 7.8
2019-Oct-19 08:20 306 7.8
2019-Oct-19 08:16 295 7.8
2019-Oct-19 08:10 273 0 gusting 3 7.8
2019-Oct-19 08:05 259 7.8
2019-Oct-19 08:00 268 7.8
2019-Oct-19 07:55 309 7.2
2019-Oct-19 07:50 278 7.2
2019-Oct-19 07:45 278 7.2
2019-Oct-19 07:40 264 7.2
2019-Oct-19 07:35 293 7.2
2019-Oct-19 07:25 274 7.2
2019-Oct-19 07:20 299 7.8
2019-Oct-19 07:15 273 7.8
2019-Oct-19 07:10 261 7.8
2019-Oct-19 07:05 257 7.8
2019-Oct-19 06:55 261 7.8
2019-Oct-19 06:50 269 7.8
2019-Oct-19 06:40 276 0 gusting 2 7.8
2019-Oct-19 06:35 274 7.8
2019-Oct-19 06:30 271 7.8
2019-Oct-19 06:25 288 7.8
2019-Oct-19 06:20 271 8.3
2019-Oct-19 06:15 273 8.3
2019-Oct-19 06:10 262 8.3
2019-Oct-19 06:05 294 8.3
2019-Oct-19 06:00 282 8.3
2019-Oct-19 05:50 271 8.3
2019-Oct-19 05:47 289 8.3
2019-Oct-19 05:41 261 8.3
2019-Oct-19 05:35 259 0 gusting 6 8.3
2019-Oct-19 05:31 283 8.3
2019-Oct-19 05:25 262 7.8
2019-Oct-19 05:21 269 7.8
2019-Oct-19 05:16 237 7.8
2019-Oct-19 05:10 269 7.8
2019-Oct-19 05:06 265 7.8
2019-Oct-19 05:01 257 7.8
2019-Oct-19 04:55 262 7.8
2019-Oct-19 04:47 259 7.8
2019-Oct-19 04:40 288 7.8
2019-Oct-19 04:35 271 7.8
2019-Oct-19 04:31 262 7.8
2019-Oct-19 04:25 262 7.8
2019-Oct-19 04:20 309 7.8
2019-Oct-19 04:16 267 8.3
2019-Oct-19 04:10 256 7.8
2019-Oct-19 04:05 257 8.3
2019-Oct-19 04:01 210 8.3
2019-Oct-19 03:55 202 8.3
2019-Oct-19 03:50 302 8.3
2019-Oct-19 03:45 301 8.3
2019-Oct-19 03:40 281 8.3
2019-Oct-19 03:35 269 8.3
2019-Oct-19 03:31 258 8.3
2019-Oct-19 03:25 245 8.3
2019-Oct-19 03:20 259 8.3
2019-Oct-19 03:15 266 8.3
2019-Oct-19 03:10 255 8.3
2019-Oct-19 03:05 238 8.3
2019-Oct-19 03:01 227 8.3
2019-Oct-19 02:55 266 8.3
2019-Oct-19 02:50 262 8.3
2019-Oct-19 02:45 232 8.3
2019-Oct-19 02:40 257 8.3
2019-Oct-19 02:35 265 8.3
2019-Oct-19 02:30 260 8.3
2019-Oct-19 02:25 285 8.3
2019-Oct-19 02:20 268 8.3
2019-Oct-19 02:15 266 8.3
2019-Oct-19 02:10 259 8.3
2019-Oct-19 02:05 265 8.3
2019-Oct-19 02:01 305 8.3
2019-Oct-19 01:55 262 8.3
2019-Oct-19 01:50 319 8.3
2019-Oct-19 01:45 293 0 gusting 6 8.3
2019-Oct-19 01:40 267 8.3
2019-Oct-19 01:35 269 8.3
2019-Oct-19 01:30 277 8.3
2019-Oct-19 01:25 261 8.3
2019-Oct-19 01:20 311 8.3
2019-Oct-19 01:10 252 0 gusting 1 8.3
2019-Oct-19 01:05 264 8.3
2019-Oct-19 00:55 284 8.3
2019-Oct-19 00:50 245 8.3
2019-Oct-19 00:45 269 8.3
2019-Oct-19 00:40 256 0 gusting 1 8.3
2019-Oct-19 00:35 264 8.3
2019-Oct-19 00:25 258 0 gusting 2 8.3
2019-Oct-19 00:20 302 8.3
2019-Oct-19 00:15 271 8.3
2019-Oct-19 00:10 304 8.3
2019-Oct-19 00:05 259 8.3
2019-Oct-19 00:00 300 8.3
2019-Oct-18 23:51 261 8.3
2019-Oct-18 23:47 261 8.3
2019-Oct-18 23:40 271 8.3
2019-Oct-18 23:36 264 0 gusting 2 8.3
2019-Oct-18 23:31 271 0 gusting 2 8.3
2019-Oct-18 23:25 250 8.3
2019-Oct-18 23:20 309 0 gusting 2 8.3
2019-Oct-18 23:16 264 0 gusting 2 8.3
2019-Oct-18 23:10 307 0 gusting 3 8.3
2019-Oct-18 23:05 259 0 gusting 4 8.3
2019-Oct-18 23:01 263 0 gusting 4 8.3
2019-Oct-18 22:55 271 8.3
2019-Oct-18 22:50 281 0 gusting 1 8.3
2019-Oct-18 22:46 268 8.3
2019-Oct-18 22:40 275 8.3
2019-Oct-18 22:35 290 8.3
2019-Oct-18 22:32 245 0 gusting 2 8.3
2019-Oct-18 22:25 262 8.3
2019-Oct-18 22:20 265 0 gusting 3 8.3
2019-Oct-18 22:16 315 8.3
2019-Oct-18 22:10 206 8.3
2019-Oct-18 22:05 319 8.3
2019-Oct-18 22:01 252 0 gusting 3 8.3
2019-Oct-18 21:55 262 8.3
2019-Oct-18 21:50 270 0 gusting 2 8.3
2019-Oct-18 21:46 293 0 gusting 1 8.3
2019-Oct-18 21:40 293 0 gusting 3 8.3
2019-Oct-18 21:35 255 1 gusting 4 8.3
2019-Oct-18 21:30 262 0 gusting 4 8.9
2019-Oct-18 21:25 311 0 gusting 2 8.9
2019-Oct-18 21:20 278 0 gusting 2 8.9
2019-Oct-18 21:15 307 0 gusting 3 8.9
2019-Oct-18 21:10 266 0 gusting 4 8.9
2019-Oct-18 21:05 255 8.9
2019-Oct-18 21:00 303 1 gusting 4 8.9
2019-Oct-18 20:55 278 0 gusting 5 8.9
2019-Oct-18 20:50 291 0 gusting 5 8.9
2019-Oct-18 20:45 283 1 gusting 5 9.4
2019-Oct-18 20:40 299 0 gusting 6 9.4
2019-Oct-18 20:35 319 1 gusting 6 10.0
2019-Oct-18 20:25 278 1 gusting 6 10.6
2019-Oct-18 20:20 263 2 gusting 6 11.1
2019-Oct-18 20:15 303 0 gusting 3 11.7
2019-Oct-18 20:10 271 1 gusting 6 11.7
2019-Oct-18 20:05 275 1 gusting 6 12.2
2019-Oct-18 19:55 255 0 gusting 5 12.2
2019-Oct-18 19:50 266 0 gusting 6 12.2
2019-Oct-18 19:45 267 0 gusting 8 12.2
2019-Oct-18 19:36 307 1 gusting 6 12.8
2019-Oct-18 19:31 268 1 gusting 8 13.3
2019-Oct-18 19:25 217 1 gusting 8 13.3
2019-Oct-18 19:18 218 1 gusting 8 13.3
2019-Oct-18 19:10 321 0 gusting 9 13.3
2019-Oct-18 19:05 233 1 gusting 9 13.3
2019-Oct-18 19:02 210 0 gusting 5 13.9
2019-Oct-18 18:55 286 1 gusting 5 13.9
2019-Oct-18 18:50 266 0 gusting 4 13.9
2019-Oct-18 18:46 357 0 gusting 5 13.9
2019-Oct-18 18:40 312 0 gusting 5 13.9
2019-Oct-18 18:35 267 0 gusting 5 13.9
2019-Oct-18 18:31 278 0 gusting 3 13.3
2019-Oct-18 18:25 260 0 gusting 5 13.3
2019-Oct-18 18:20 265 0 gusting 5 12.8
2019-Oct-18 18:16 268 0 gusting 3 12.2
2019-Oct-18 18:10 250 0 gusting 3 12.2
2019-Oct-18 18:05 275 11.7
2019-Oct-18 18:01 250 11.7
2019-Oct-18 17:55 261 0 gusting 6 11.7
2019-Oct-18 17:50 261 0 gusting 6 11.7
2019-Oct-18 17:45 281 0 gusting 6 11.7
2019-Oct-18 17:40 266 1 gusting 5 12.2
2019-Oct-18 17:35 243 12.2
2019-Oct-18 17:31 262 0 gusting 7 12.2
2019-Oct-18 17:25 251 2 gusting 7 12.8
2019-Oct-18 17:20 026 0 gusting 6 12.8
2019-Oct-18 17:15 295 0 gusting 13 12.8
2019-Oct-18 17:10 239 3 gusting 13 13.3
2019-Oct-18 17:05 238 2 gusting 6 13.3
2019-Oct-18 17:01 297 0 gusting 4 13.3
2019-Oct-18 16:55 263 0 gusting 13 13.9
2019-Oct-18 16:50 252 2 gusting 13 13.9
2019-Oct-18 16:45 227 1 gusting 9 13.9
2019-Oct-18 16:40 238 2 gusting 9 13.9
2019-Oct-18 16:35 253 1 gusting 9 14.4
2019-Oct-18 16:30 253 2 gusting 9 14.4
2019-Oct-18 16:25 234 2 gusting 7 14.4
2019-Oct-18 16:20 217 1 gusting 7 14.4
2019-Oct-18 16:16 246 2 gusting 7 14.4
2019-Oct-18 16:10 262 13.9
2019-Oct-18 16:05 231 1 gusting 7 13.9
2019-Oct-18 15:55 247 13.9
2019-Oct-18 15:50 235 2 gusting 6 13.9
2019-Oct-18 15:40 241 0 gusting 5 13.3
2019-Oct-18 15:35 290 0 gusting 11 13.3
2019-Oct-18 15:25 264 0 gusting 6 12.8
2019-Oct-18 15:20 270 12.8
2019-Oct-18 15:15 274 0 gusting 7 12.8
2019-Oct-18 15:10 269 0 gusting 6 12.8
2019-Oct-18 15:05 263 0 gusting 6 12.2
2019-Oct-18 15:00 238 12.2
2019-Oct-18 14:55 236 0 gusting 6 12.2
2019-Oct-18 14:50 203 0 gusting 5 12.2
2019-Oct-18 14:45 203 0 gusting 4 12.2
2019-Oct-18 14:40 225 1 gusting 4 12.2
2019-Oct-18 14:35 252 12.2
2019-Oct-18 14:30 252 0 gusting 6 12.2
2019-Oct-18 14:25 231 12.2
2019-Oct-18 14:20 251 0 gusting 4 12.2
2019-Oct-18 14:10 275 12.2
2019-Oct-18 14:06 251 1 gusting 7 12.2
2019-Oct-18 13:55 243 0 gusting 6 12.2
2019-Oct-18 13:51 258 12.2
2019-Oct-18 13:46 277 0 gusting 6 12.2
2019-Oct-18 13:41 244 12.2
2019-Oct-18 13:35 249 1 gusting 8 11.7
2019-Oct-18 13:31 230 11.7
2019-Oct-18 13:25 283 0 gusting 6 11.7
2019-Oct-18 13:20 243 2 gusting 6 11.7
2019-Oct-18 13:16 246 0 gusting 6 11.7
2019-Oct-18 13:10 328 1 gusting 6 11.7
2019-Oct-18 13:05 253 0 gusting 6 11.7
2019-Oct-18 13:01 290 0 gusting 6 11.1
2019-Oct-18 12:55 356 1 gusting 6 11.1
2019-Oct-18 12:50 224 1 gusting 5 11.1
2019-Oct-18 12:46 238 1 gusting 5 11.1
2019-Oct-18 12:40 233 11.1
2019-Oct-18 12:35 314 1 gusting 9 11.1
2019-Oct-18 12:31 260 0 gusting 9 11.1
2019-Oct-18 12:25 040 11.1
2019-Oct-18 12:20 259 1 gusting 7 11.1
2019-Oct-18 12:15 223 0 gusting 7 11.1
2019-Oct-18 12:10 240 11.1
2019-Oct-18 12:05 312 10.6
2019-Oct-18 12:01 260 1 gusting 5 10.6
2019-Oct-18 11:55 313 0 gusting 4 10.6
2019-Oct-18 11:50 077 10.6
2019-Oct-18 11:46 255 1 gusting 8 10.6
2019-Oct-18 11:40 231 10.6
2019-Oct-18 11:35 245 2 gusting 7 10.6
2019-Oct-18 11:31 247 1 gusting 7 10.6
2019-Oct-18 11:25 248 0 gusting 6 10.6
2019-Oct-18 11:20 121 1 gusting 6 10.6
2019-Oct-18 11:15 250 10.6
2019-Oct-18 11:10 269 0 gusting 8 10.6
2019-Oct-18 11:05 274 2 gusting 8 10.6
2019-Oct-18 11:01 269 1 gusting 6 10.6
2019-Oct-18 10:55 252 0 gusting 6 10.6
2019-Oct-18 10:50 274 1 gusting 6 10.6
2019-Oct-18 10:45 251 1 gusting 7 10.6
2019-Oct-18 10:40 230 0 gusting 8 10.6
2019-Oct-18 10:35 208 1 gusting 11 10.6
2019-Oct-18 10:25 198 1 gusting 6 10.6
2019-Oct-18 10:20 015 0 gusting 4 10.6
2019-Oct-18 10:15 243 0 gusting 5 10.6
2019-Oct-18 10:10 245 10.6
2019-Oct-18 10:05 269 10.6
2019-Oct-18 09:55 268 1 gusting 7 10.6
2019-Oct-18 09:50 243 0 gusting 6 10.6
2019-Oct-18 09:45 245 10.6
2019-Oct-18 09:40 252 0 gusting 5 10.6
2019-Oct-18 09:35 217 1 gusting 5 10.6
2019-Oct-18 09:30 328 10.6
2019-Oct-18 09:25 122 3 gusting 9 10.6
2019-Oct-18 09:17 015 0 gusting 8 10.6
2019-Oct-18 09:11 275 2 gusting 8 10.6
2019-Oct-18 09:06 213 1 gusting 7 10.6
2019-Oct-18 09:01 206 1 gusting 6 10.6
2019-Oct-18 08:55 269 0 gusting 8 10.6
2019-Oct-18 08:51 016 1 gusting 7 10.6
2019-Oct-18 08:46 269 1 gusting 7 10.6
2019-Oct-18 08:40 230 2 gusting 6 10.6
2019-Oct-18 08:35 081 1 gusting 9 10.6
2019-Oct-18 08:31 277 3 gusting 9 10.6
2019-Oct-18 08:25 250 1 gusting 11 10.6
2019-Oct-18 08:20 105 2 gusting 11 10.6
2019-Oct-18 08:16 219 1 gusting 7 10.6
2019-Oct-18 08:10 105 0 gusting 12 10.6
2019-Oct-18 08:05 245 0 gusting 7 10.6
2019-Oct-18 08:02 105 0 gusting 7 10.6
2019-Oct-18 07:55 180 1 gusting 8 10.6
2019-Oct-18 07:50 266 2 gusting 8 10.6
2019-Oct-18 07:46 294 1 gusting 7 10.6
2019-Oct-18 07:40 237 1 gusting 8 10.6
2019-Oct-18 07:35 090 1 gusting 9 10.6
2019-Oct-18 07:31 223 2 gusting 9 11.1
2019-Oct-18 07:25 253 2 gusting 11 11.7
2019-Oct-18 07:20 360 4 gusting 11 11.7
2019-Oct-18 07:15 242 2 gusting 9 11.7
2019-Oct-18 07:10 219 2 gusting 9 11.7
2019-Oct-18 07:05 252 2 gusting 7 12.2
2019-Oct-18 07:01 010 1 gusting 8 12.2
2019-Oct-18 06:55 285 1 gusting 11 12.2
2019-Oct-18 06:50 304 2 gusting 9 12.2
2019-Oct-18 06:46 245 1 gusting 11 12.2
2019-Oct-18 06:40 249 0 gusting 6 12.2
2019-Oct-18 06:35 263 0 gusting 9 12.2
2019-Oct-18 06:30 236 3 gusting 9 12.2
2019-Oct-18 06:25 051 0 gusting 6 12.2
2019-Oct-18 06:20 140 1 gusting 6 12.8
2019-Oct-18 06:15 221 1 gusting 6 12.8
2019-Oct-18 06:10 270 1 gusting 6 12.8
2019-Oct-18 06:05 275 1 gusting 8 12.8
2019-Oct-18 06:00 210 2 gusting 10 12.8
2019-Oct-18 05:55 271 5 gusting 11 12.8
2019-Oct-18 05:50 271 1 gusting 11 12.8
2019-Oct-18 05:40 085 1 gusting 6 12.8
2019-Oct-18 05:35 109 1 gusting 7 12.8
2019-Oct-18 05:30 102 2 gusting 11 12.8
2019-Oct-18 05:25 290 4 gusting 11 12.8
2019-Oct-18 05:20 202 2 gusting 10 12.8
2019-Oct-18 05:10 261 2 gusting 8 12.8
2019-Oct-18 05:05 291 1 gusting 6 12.8
2019-Oct-18 05:00 184 2 gusting 7 12.8
2019-Oct-18 04:55 290 0 gusting 7 12.8
2019-Oct-18 04:50 091 0 gusting 6 12.2
2019-Oct-18 04:45 068 1 gusting 6 12.2
2019-Oct-18 04:40 264 1 gusting 6 12.2
2019-Oct-18 04:32 270 1 gusting 8 12.2
2019-Oct-18 04:25 206 1 gusting 6 12.2
2019-Oct-18 04:20 321 0 gusting 7 12.2
2019-Oct-18 04:16 136 1 gusting 7 12.2
2019-Oct-18 04:10 094 1 gusting 6 12.2
2019-Oct-18 04:05 322 0 gusting 8 12.2
2019-Oct-18 04:01 059 1 gusting 8 12.2
2019-Oct-18 03:55 261 0 gusting 8 12.2
2019-Oct-18 03:50 083 1 gusting 8 12.2
2019-Oct-18 03:46 283 1 gusting 6 12.2
2019-Oct-18 03:40 115 1 gusting 10 12.2
2019-Oct-18 03:35 093 2 gusting 7 12.2
2019-Oct-18 03:31 289 0 gusting 7 11.7
2019-Oct-18 03:25 095 0 gusting 6 11.7
2019-Oct-18 03:20 356 1 gusting 8 12.2
2019-Oct-18 03:15 259 1 gusting 8 12.2
2019-Oct-18 03:10 211 1 gusting 6 12.2
2019-Oct-18 03:05 244 1 gusting 5 11.7
2019-Oct-18 03:01 105 0 gusting 7 12.2
2019-Oct-18 02:55 096 1 gusting 10 12.2
2019-Oct-18 02:50 178 0 gusting 5 12.2
2019-Oct-18 02:46 316 0 gusting 9 12.2
2019-Oct-18 02:40 243 1 gusting 9 11.7
2019-Oct-18 02:35 258 2 gusting 7 11.7
2019-Oct-18 02:31 059 1 gusting 7 11.7
2019-Oct-18 02:25 061 2 gusting 6 11.7
2019-Oct-18 02:20 072 1 gusting 7 11.7
2019-Oct-18 02:16 351 0 gusting 7 11.7
2019-Oct-18 02:10 345 0 gusting 6 11.7
2019-Oct-18 02:01 357 0 gusting 12 12.2
2019-Oct-18 01:55 093 0 gusting 7 12.2
2019-Oct-18 01:50 301 0 gusting 5 11.7
2019-Oct-18 01:45 101 0 gusting 3 11.7
2019-Oct-18 01:40 103 0 gusting 6 11.7
2019-Oct-18 01:35 082 1 gusting 6 11.7
2019-Oct-18 01:30 248 0 gusting 6 12.2
2019-Oct-18 01:25 248 0 gusting 6 12.2
2019-Oct-18 01:20 082 0 gusting 4 11.7
2019-Oct-18 01:15 297 12.2
2019-Oct-18 01:10 065 0 gusting 6 12.2
2019-Oct-18 01:05 046 0 gusting 4 12.2
2019-Oct-18 01:01 135 1 gusting 6 12.2
2019-Oct-18 00:55 323 0 gusting 6 12.2
2019-Oct-18 00:50 283 0 gusting 4 12.2
2019-Oct-18 00:45 283 0 gusting 2 12.2
2019-Oct-18 00:40 060 0 gusting 4 12.2
2019-Oct-18 00:35 003 0 gusting 4 12.2
2019-Oct-18 00:30 125 0 gusting 6 12.2
2019-Oct-18 00:25 082 0 gusting 6 12.2
2019-Oct-18 00:20 072 0 gusting 6 12.2
2019-Oct-18 00:16 089 1 gusting 6 12.2
2019-Oct-18 00:10 098 1 gusting 6 12.2
2019-Oct-18 00:00 217 0 gusting 6 12.8
2019-Oct-17 23:55 294 0 gusting 5 12.8
2019-Oct-17 23:50 266 0 gusting 4 12.8
2019-Oct-17 23:40 082 0 gusting 6 12.8
2019-Oct-17 23:35 091 0 gusting 5 12.8
2019-Oct-17 23:25 001 0 gusting 4 12.8
2019-Oct-17 23:20 099 0 gusting 4 12.8
2019-Oct-17 23:10 127 0 gusting 4 12.8
2019-Oct-17 23:05 082 0 gusting 4 12.8
2019-Oct-17 23:00 072 12.8
2019-Oct-17 22:55 089 0 gusting 2 12.8
2019-Oct-17 22:50 115 0 gusting 3 12.8
2019-Oct-17 22:40 089 0 gusting 4 12.8
2019-Oct-17 22:35 275 12.8
2019-Oct-17 22:30 160 12.8
2019-Oct-17 22:25 095 0 gusting 4 12.8
2019-Oct-17 22:20 249 0 gusting 4 12.8
2019-Oct-17 22:10 263 12.8
2019-Oct-17 22:05 282 0 gusting 2 12.8
2019-Oct-17 22:00 025 12.8